This is the latest recevied weather packets stored in our database for station/object N1YZ. If no packets are shown the sender has not sent any weather packets the latest 10 day(s).
| Time | Temp. | Humidity | Pressure | Rain* | Wind** | Luminosity | Snow |
|---|---|---|---|---|---|---|---|
| 1778014733 | 23.89° C | 66% | 1031.7 hPa | 0 mm | - | 167 W/m² | - |
| 1778014432 | 23.89° C | 64% | 1031.6 hPa | 0 mm | - | 146 W/m² | - |
| 1778014128 | 24.44° C | 61% | 1031.9 hPa | 0 mm | - | 98 W/m² | - |
| 1778013826 | 24.44° C | 60% | 1031.9 hPa | 0 mm | - | 125 W/m² | - |
| 1778013523 | 24.44° C | 64% | 1031.8 hPa | 0 mm | - | 90 W/m² | - |
| 1778013219 | 23.89° C | 61% | 1032 hPa | 0 mm | - | 100 W/m² | - |
| 1778012916 | 23.89° C | 60% | 1031.8 hPa | 0 mm | - | 103 W/m² | - |
| 1778012612 | 23.89° C | 65% | 1032 hPa | 0 mm | - | 213 W/m² | - |
| 1778012309 | 23.89° C | 64% | 1032 hPa | 0 mm | - | 110 W/m² | - |
| 1778012006 | 23.89° C | 64% | 1031.9 hPa | 0 mm | - | 198 W/m² | - |
| 1778011705 | 23.89° C | 64% | 1032.5 hPa | 0 mm | - | 208 W/m² | - |
| 1778011401 | 23.89° C | 63% | 1032.4 hPa | 0 mm | - | 172 W/m² | - |
| 1778011096 | 24.44° C | 60% | 1032.8 hPa | 0 mm | - | 94 W/m² | - |
| 1778010794 | 23.89° C | 62% | 1032.4 hPa | 0 mm | - | 541 W/m² | - |
| 1778010491 | 24.44° C | 61% | 1032.8 hPa | 0 mm | - | 628 W/m² | - |
| 1778010188 | 23.89° C | 58% | 1032.7 hPa | 0 mm | - | 405 W/m² | - |
| 1778009883 | 23.89° C | 64% | 1032.6 hPa | 0 mm | - | 320 W/m² | - |
| 1778009582 | 23.33° C | 64% | 1032.6 hPa | 0 mm | - | 132 W/m² | - |
| 1778009279 | 23.89° C | 62% | 1032.8 hPa | 0 mm | - | 206 W/m² | - |
| 1778008977 | 24.44° C | 62% | 1032.6 hPa | 0 mm | - | 173 W/m² | - |
| 1778008675 | 23.33° C | 63% | 1032.6 hPa | 0 mm | - | 595 W/m² | - |
| 1778008373 | 23.33° C | 61% | 1033 hPa | 0 mm | - | 148 W/m² | - |
| 1778008069 | 23.89° C | 63% | 1033.1 hPa | 0 mm | - | 783 W/m² | - |
| 1778007764 | 23.89° C | 58% | 1033.1 hPa | 0 mm | - | 246 W/m² | - |
| 1778007460 | 25° C | 58% | 1033.1 hPa | 0 mm | - | 259 W/m² | - |
* Rain latest hour (hover to see other rain measurements)
** Current wind speed in m/s (hover to see current wind gust speed)